Regional Weather Roundup
Issued by NWS Wakefield, VA

Home | Current Version | Previous Version | Text Only | Print | Product List | Glossary Off
Versions: 1 2 3 4 5 6 7 8 9 10 11 12 13 14 15 16 17 18 19 20 21 22 23 24 25 26 27

000
ASUS41 KAKQ 161815
RWRAKQ

REGIONAL WEATHER ROUNDUP
NATIONAL WEATHER SERVICE WAKEFIELD VA
100 PM EST SAT DEC 16 2017

Note: "fair" indicates few or no clouds below 12,000 feet with no
significant weather and/or obstructions to visibility. * = Denotes
station may not report precipitation (e.g., rain,snow,etc.),
thunder or fog.

VAZ042-051-052>054-056-161900-
NORTHERN VIRGINIA

CITY           SKY/WX    TMP DP  RH WIND       PRES   REMARKS
WASH NATIONAL  MOSUNNY   46  23  40 SW14G22   30.11F
DULLES         MOSUNNY   44  22  41 S18       30.09F
FORT BELVOIR   SUNNY     44  22  41 S10G21    30.11F
QUANTICO       SUNNY     46  24  42 SW12G17   30.13F
FREDERICKSBRG* SUNNY     46  24  41 SW12      30.12F
STAFFORD*      SUNNY     46  22  38 S12G18    30.15F
WARRENTON      SUNNY     46  17  30 S7G20     30.10F
CULPEPER*      SUNNY     46  20  35 SW13G21   30.11F
MANASSAS*      NOT AVBL
LEESBURG*      SUNNY     45  27  49 SW15G21   30.08F
WINCHESTER     MOSUNNY   43  21  42 W10       30.04F
FRONT ROYAL*   CLEAR     45  21  39 MISG      30.05F
LURAY*         CLEAR     45  23  42 S13G18    30.05F
$$

VAZ048-049-060>072-079>083-161900-
CENTRAL AND SOUTH CENTRAL VIRGINIA

CITY           SKY/WX    TMP DP  RH WIND       PRES   REMARKS
RICHMOND       MOSUNNY   51  21  30 SW12      30.15F
CHESTERFIELD*  NOT AVBL
PETERSBURG*    SUNNY     46  18  31 SW8       30.17F
HANOVER        SUNNY     46  20  35 SW10      30.15F
TAPPAHANNOCK*  SUNNY     47  23  38 SW12G17   30.15F
QUINTON*       FAIR      44  21  39 S5        30.16F
CHARLOTTSVILLE SUNNY     47  22  37 SW12G17   30.10F
GORDONSVILLE*  CLEAR     46  22  39 SW15G22   30.10F
ORANGE*        SUNNY     45  21  39 SW12G22   30.11F
LOUISA*        SUNNY     45  20  37 SW9G17    30.16F
BUMPASS*       FAIR      45  18  34 SW12G18   30.13F
FARMVILLE*     SUNNY     47  25  41 SW12G17   30.14F
CREWE*         FAIR      46  22  39 W8        30.16F
FORT PICKETT*  NOT AVBL
CHASE CITY*    FAIR      46  23  41 W5        30.18F
CLARKSVILLE*   FAIR      46  23  39 W6        30.19F
SOUTH HILL*    SUNNY     46  23  41 SW3G10    30.24F
LAWRENCEVILLE* FAIR      46  20  35 SW7       30.18F
EMPORIA*       SUNNY     45  21  39 CALM      30.21F
$$

VAZ088>098-161900-
SOUTHEAST VIRGINIA

CITY           SKY/WX    TMP DP  RH WIND       PRES   REMARKS
NORFOLK        SUNNY     46  19  34 S8        30.18F
VIRGINIA BEACH MOSUNNY   45  17  32 W8        30.18F
NORFOLK NAVAL  SUNNY     45  20  36 VRB7      30.20F
WEST POINT*    SUNNY    N/A N/A N/A SW8       30.17F
SALUDA*        FAIR      44  20  38 S10       30.16F
NEWPORT NEWS   SUNNY     45  20  36 SW10      30.18F
LANGLEY AFB    SUNNY     45  21  38 W12       30.18F
FORT EUSTIS    SUNNY     46  21  36 S7        30.16F
WILLIAMSBURG*  SUNNY     48  23  37 SW6       30.17F
HR EXEC AP*    FAIR      46  20  35 SW9       30.20F
FRANKLIN*      SUNNY     45  20  37 SW5       30.20F
US460-WAKEFLD  SUNNY     46  21  37 W10       30.19F
$$

VAZ020-022-025-037-045-161900-
WEST CENTRAL AND SOUTHWEST VIRGINIA

CITY           SKY/WX    TMP DP  RH WIND       PRES   REMARKS
STAUNTON*      SUNNY     44  24  43 SW15      30.08F
WAYNESBORO*    CLEAR     43  23  44 SW7G20    30.07F
HOT SPRINGS VA MOSUNNY   34  22  61 W17G26    30.01F WCI  23
LYNCHBURG      SUNNY     46  23  40 SW13G20   30.13F
DANVILLE       SUNNY     46  23  40 SW9G17    30.20F
SOUTH BOSTON*  FAIR      46  20  36 SW8       30.20F
MARTINSVILLE   SUNNY     45  22  39 SW7       30.20F
ROANOKE        SUNNY     46  24  42 SW9       30.14F
BLACKSBURG     SUNNY     42  26  51 W10G17    30.15F
DUBLIN*        SUNNY     44  25  46 SW14      30.14F
MARION*        SUNNY     40  21  47 SW14G21   30.17F
HILLSVILLE*    SUNNY     41  23  49 NW8       30.12F
RICHLANDS*     FAIR      38  23  55 SW12G17   30.15F
WISE*          SUNNY     39  28  65 SW17      30.16F
ABINGDON*      SUNNY     41  24  51 W7G16     30.19F
$$

MDZ021>025-VAZ099-100-161900-
SOUTHERN MARYLAND AND THE DELMARVA PENINSULA

CITY           SKY/WX    TMP DP  RH WIND       PRES   REMARKS
PATUXENT RIVER MOSUNNY   44  21  40 W14G20    30.13F
BAY BRIDGE APT SUNNY     41  27  56 SW8       30.10F
LEONARDTOWN    SUNNY     43  23  45 SW14      30.14F
DOVER          SUNNY     42  30  61 SW16      30.08F
GEORGETOWN     SUNNY     44  26  49 SW10G20   30.11F
EASTON         SUNNY     43  25  49 SW14      30.14F
CAMBRIDGE      SUNNY     43  23  45 SW13      30.12F
SALISBURY      SUNNY     43  22  43 SW13G22   30.12F
OCEAN CITY     SUNNY     45  24  43 W10       30.13F
WALLOPS ISLAND SUNNY     45  21  38 W8        30.15F
ACCOMACK*      SUNNY     44  21  40 SW7       30.16F
$$

NCZ012>017-030>032-161900-
NORTH CENTRAL AND EASTERN NORTH CAROLINA

CITY           SKY/WX    TMP DP  RH WIND       PRES   REMARKS
ROANOKE RAPIDS FAIR      46  23  39 SW6       30.21F
RALEIGH        MOSUNNY   47  22  37 W6        30.22F
ELIZABETH CITY SUNNY     45  23  42 W5        30.23S
AHOSKIE*       SUNNY     44  22  41 NW5       30.23F
EDENTON*       SUNNY     46  23  41 W3        30.25S
CURRITUCK*     SUNNY     44  21  40 CALM      30.23F
KILL DEVIL HLS SUNNY     43  24  47 CALM      30.22R
MANTEO         SUNNY     43  22  42 N8        30.23R
CAPE HATTERAS  SUNNY     45  26  47 W6        30.21F
TARBORO*       NOT AVBL
GOLDSBORO      SUNNY     50  23  34 W7        30.22F
WASHINGTON     SUNNY     46  20  37 CALM      30.24S
GREENVILLE     SUNNY     46  23  39 N6        30.25S
NEW BERN       SUNNY     47  25  42 W7        30.24F
WILMINGTON     SUNNY     50  23  34 CALM      30.25F
$$

VAZ048-161900-
ELSEWHERE

CITY           SKY/WX    TMP DP  RH WIND       PRES   REMARKS
HARRISBURG PA  CLOUDY    41  25  53 SW10      30.01F
BALTIMORE      MOSUNNY   43  23  45 S10       30.08F
ANNAPOLIS      SUNNY     45  24  43 SW9G17    30.09F
ANDREWS AFB    SUNNY     44  22  42 SW13G22   30.09F
PHILADELPHIA   PTSUNNY   39  25  57 SW16      30.06F
HENDERSON NC   SUNNY     44  20  37 CALM      30.20F
GREENSBORO     MOSUNNY   45  22  40 W7        30.20F
ROCKY MOUNT    SUNNY     47  22  37 W5        30.23F
$$

VAZ100-161900-
MARINE

STATION/POSITION TIME  TEMP    WIND        PRES    WAVE   SWELL
                       AIR SEA DIR/SP/G            HT/PER HT/PER
                 (UTC) (F)     (DEG/KT/KT) (MB)    (FT/S) (FT/S)
BRANDYWINE LGT   1736   40     260/ 23/ 26 1019.4F
CAPE MAY NJ      1748   40 40  260/ 15/ 18 1018.6F
LEWES DE         1748      40  260/ 13/ 17 1019.2F
15NM E FENWICK I 1750   42 51  230/ 17/ 21 1020.3F   3/ 4
OCEAN-CITY-INLET 1748   42 44  290/ 13/ 17 1020.6F
WACHAPREAGUE VA  1748   45 38  220/  7/ 11 1021.2F
THOMAS POINT MD  1800   41 43  200/ 14/ 15   N/A
GOOSES REEF MD   1800   42 44  220/ 16/ 19 1020.2    2/ 2
COVE POINT MD    1748   42     260/ 14/ 19 1020.6F
SOLOMONS ISLAND  1748   43 45  230/ 14/ 20 1019.9F
BISHOPS HEAD MD  1748   41 36  210/ 13/ 17 1020.7F
PINEY POINT MD   1748          270/  4/  8   N/A
POTOMAC MD       1800   43 43  230/ 12/ 14 1020.0    2/ 2
CAMBRIDGE MD     1748   45 40              1020.5F
LEWISETTA VA     1748   43 39  250/ 10/ 14 1020.6F
RAPPAHANNOCK LGT 1748          210/ 12/ 15 1021.9F
STINGRAY PT      1800   44 44  260/ 10/ 12 1021.5    1/ 2
YORK RVR RNG VA  1748   44     250/  9/ 10 1022.2F
YORKTOWN VA      1748   44 46  230/  8/ 12 1021.4F
JAMESTOWN VA     1800      43  210/  8/ 10   N/A     0
DOMINION TERM VA 1748   41     180/  4/  5 1022.6F
KIPTOPEKE VA     1748      44  230/  8/ 11   N/A
CAPE HENRY VA    1748   44     200/  6/ 10   N/A
WILLOUBY STN VA  1742          210/  9/  9 1022.1F
S CRANEY ISL VA  1748   44     210/  5/  7 1022.3F
CAPE HENRY BUOY  1800      52                N/A     2/ 6
1ST LANDING BUOY 1800   42 48  260/ 12/ 14 1022.1    1
CAPE CHARLES BUO 1751      51                N/A     1/11
64NM E OF VA BCH 1750   44 57  310/ 10/ 12 1023.3    4/ 6   3/ 6
DUCK PIER NC     1748   42 51  270/  5/  7 1023.1R
44100 DUCK FRF   1745      54                N/A     3/ 8
44056 DUCK FRF   1800      54                N/A     3/ 6
OREGON INLET NC  1742   42 48  260/  6/  7 1023.2R
HATTERAS NC      1748      51  280/  4/  5 1022.5F
DIAMOND SHLS NC  1750   45 73  260/  4/ 10 1022.9F   4/ 8   3/ 8
CAPE LOOKOUT NC  1800          220/  3/  5 1024.1F
$$




USA.gov is the U.S. government's official web portal to all federal, state and local government web resources and services.